Location: Peterborough
(44.3091°N, 78.3197°W)
Time: 03:06:25
(UTC-04:00)

S-56A Canister/Altair - Pass Details

Date: 31 March 2023
Orbit: 639 x 2492 km, 38.9° (Epoch: 08 June)

Event Time Altitude Azimuth Distance (km) Brightness Sun altitude
Rises 22:43:28 0° 278° (W) 5,314 12.6 -30.3°
Reaches altitude 10° 22:46:43 10° 275° (W) 4,520 12.0 -30.7°
Maximum altitude 22:59:24 56° 202° (SSW) 2,759 10.0 -32.3°
Enters shadow 23:02:39 49° 166° (SSE) 2,972 10.0 -32.7°
Drops below altitude 10° 23:13:52 10° 130° (SE) 5,088 - -34.0°
Sets 23:17:46 0° 127° (SE) 6,000 - -34.4°
